Find Starlink 1958

NORAD ID: 47559 Int'l Des: 2021-009 Owner: SPXS Country: US Constellation: starlink decayed
LEOCIRCULAR

Re-entered — 22. Juni 2026

3D-Globus wird geladen...

About Starlink 1958

Starlink 1958 (NORAD 47559) is a starlink constellation satellite (v1.0) launched Feb 4, 2021 by SPXS of US. It re-entered the atmosphere on Jun 22, 2026. with a mass of 260.00 kg.

Höhenverlauf

Loading altitude history...

Zweizeiliger Elementsatz

1 47559U 21009M 26173.40615201 .09606978 12440-4 39744-3 0 9990
2 47559 53.0146 153.0447 0007192 263.7484 96.2744 16.43251478298235
Epoch: 22. Juni 2026 • Age: 851 hours

Aktueller Status

Position data unavailable
Startdatum 4. Feb. 2021
Alter 5.4 years
Verglühungsdatum 22. Juni 2026
Typ internet

Technische Details

Klassifizierung Payload
Masse 260.00 kg
Trockenmasse 248.00 kg
Gesamtmasse 260.00 kg
Länge 0.20 m
Durchmesser 2.80 m
Spannweite 9.00 m
Form Box + pan
Hersteller SPXS
Bus-Typ Starlink
Phasenstatus Reentered
Besitzer/Staat SPXS/US

Most Searched